Regional Weather Roundup
Issued by NWS

Home | Current Version | Previous Version | Graphics & Text | Print | Product List | Glossary On
Versions: 1 2 3 4 5 6 7 8 9 10 11 12 13 14 15 16 17 18 19 20 21 22 23 24 25 26 27 28 29 30 31 32 33 34 35 36 37 38 39 40 41 42 43 44 45 46 47 48 49 50
000
ASUS45 KBOU 260007
RWRCO

WEATHER ROUNDUP FOR COLORADO
NATIONAL WEATHER SERVICE DENVER/BOULDER CO
600 PM MDT MON MAY 25 2015

NOTE: "FAIR" INDICATES FEW OR NO CLOUDS BELOW 12000 FEET WITH NO
SIGNIFICANT WEATHER AND/OR OBSTRUCTIONS TO VISIBILITY.

COZ001>005-013-030-031-260100-
...NORTHWEST COLORADO...

CITY           SKY/WX    TMP DP  RH WIND       PRES   REMARKS
CRAIG          CLOUDY    57  41  55 W8        30.00R
HAYDEN         PTSUNNY   55  37  50 W5        30.01S
MEEKER         PTSUNNY   59  41  51 S7        29.99S
MOUNT WERNER   NOT AVBL
STEAMBOAT SPGS CLOUDY    49  42  77 S7        30.02S
WALDEN         CLOUDY    43  34  70 CALM      30.06S
$$

COZ006>008-011-260100-
...WEST CENTRAL VALLEYS...

CITY           SKY/WX    TMP DP  RH WIND       PRES   REMARKS
GRAND JUNCTION MOSUNNY   66  41  40 W10       29.94S
MONTROSE       PTSUNNY   61  40  45 S7        30.01S
EAGLE          PTSUNNY   54  45  71 E10       30.04S
RIFLE          MOSUNNY   61  42  49 CALM      29.96F
DELTA          PTSUNNY   70  38  31 MISG      29.96S
NUCLA          CLOUDY    59  41  51 S6        30.05S
$$

COZ017>023-064>068-260100-
...SOUTHWEST COLORADO...

CITY           SKY/WX    TMP DP  RH WIND       PRES   REMARKS
DURANGO        CLOUDY    52  42  69 CALM      30.04F
CORTEZ         SUNNY     57  43  59 E10       30.03F
PAGOSA SPRINGS CLOUDY    53  39  59 CALM      30.07F
TELLURIDE      CLOUDY    45  40  81 SE3       30.16S
WOLF CREEK PAS NOT AVBL
$$

COZ009-010-012-014-032>034-037-058>063-260100-
...CENTRAL COLORADO...

CITY           SKY/WX    TMP DP  RH WIND       PRES   REMARKS
ASPEN          PTSUNNY   49  37  63 S9        30.06S
BUENA VISTA    PTSUNNY   56  32  40 E3        29.99F
COPPER MTN     CLOUDY    36  30  80 W13G21    30.21S
BERTHOUD PASS  CLOUDY    28  21  74 N8        30.23S THUNDER WCI  20
COTTONWOOD PAS PTSUNNY   52  30  43 N7        30.09S
GUNNISON       PTSUNNY   54  34  47 N14       30.06S
KREMMLING      CLOUDY    50  36  57 W9G17     30.04S THUNDER
LEADVILLE      CLOUDY    39  32  76 NW13G20   30.12R
SALIDA         PTSUNNY   62  33  34 W13       30.07R
SUNLIGHT       CLOUDY    39  37  93 CALM      30.21S
WILKERSON PASS LGT SNOW  36  32  87 NE6       30.18S
$$

COZ069>075-260100-
...SAN LUIS VALLEY/SANGRE DE CRISTO MOUNTAINS...

CITY           SKY/WX    TMP DP  RH WIND       PRES   REMARKS
ALAMOSA        CLOUDY    56  36  47 SW21      30.01S
LA VETA PASS   CLOUDY   N/A N/A N/A MISG      30.12R
SAGUACHE       PTSUNNY   57  36  44 S9        30.02R
$$

COZ035-036-038>040-260100-
...NORTHERN COLORADO FRONT RANGE...

CITY           SKY/WX    TMP DP  RH WIND       PRES   REMARKS
DENVER INTL AP PTSUNNY   61  45  55 NE17      29.93R
DMNS CITY PARK   N/A     60  44  55 NE16G24   29.92R
AURORA         NOT AVBL
FRONT RANGE AP NOT AVBL
ERIE MUNI ARPT CLOUDY    57  44  61 NE13G18   29.94R
BOULDER MUN AP TSTM      50  48  93 NW7       29.96R
CENTENNIAL     PTSUNNY   61  42  49 E13       29.93R THUNDER
BROOMFIELD     NOT AVBL
FORT COLLINS   CLOUDY    54  48  82 CALM      29.95S
LONGMONT       CLOUDY    55  50  81 N7        29.97R
$$

COZ041-046-047-076>085-087-088-260100-
...PIKES PEAK/PALMER DIVIDE AND SOUTHERN FOOTHILLS...

CITY           SKY/WX    TMP DP  RH WIND       PRES   REMARKS
COLO. SPRINGS  LGT RAIN  51  47  86 E13       29.98S
A. F. ACADEMY  NOT AVBL
ELLICOTT       NOT AVBL
FALCON         LGT RAIN  51  41  69 SE7       30.01S
FORT CARSON    NOT AVBL
LIMON          CLOUDY    57  45  64 S16       29.95R
MONUMENT HILL  NOT AVBL
TRINIDAD       PTSUNNY   58  44  60 SE12      29.94F
$$

COZ042>045-048>051-090-091-260100-
...NORTHEAST COLORADO...

CITY           SKY/WX    TMP DP  RH WIND       PRES   REMARKS
GREELEY ARPT   CLOUDY    55  46  71 NE3       29.92F
AKRON          MOSUNNY   56  46  69 NW16      29.91R
BURLINGTON     MOSUNNY   67  44  43 NW10      29.88S
WRAY           PTSUNNY   63  48  59 NW13G20   29.87R
STERLING       MOSUNNY   61  46  59 N13       29.88S
HOLYOKE        NOT AVBL
FORT MORGAN    MOSUNNY   62  45  54 N10       29.91F
$$

COZ086-089-092>099-260100-
...SOUTHEAST COLORADO...

CITY           SKY/WX    TMP DP  RH WIND       PRES   REMARKS
PUEBLO         CLOUDY    60  45  57 SW14      29.90S
LA JUNTA       CLOUDY    67  49  52 N9        29.89R
LAMAR          MOSUNNY   71  48  43 N7        29.83S
SPRINGFIELD      N/A     68  43  40 W6        29.85F
$$



USA.gov is the U.S. government's official web portal to all federal, state and local government web resources and services.